Location: Avenches
(46.8809°N, 7.0410°E)
Time: 22:45:26
(UTC+00:00)

Cosmos 1455 Rocket - Pass Details

Date: 30 March 2020
Orbit: 605 x 630 km, 82.5° (Epoch: 23 May)

Event Time Altitude Azimuth Distance (km) Brightness Sun altitude
Rises 18:55:17 0° 191° (S) 2,851 6.4 -10.2°
Reaches altitude 10° 18:57:29 10° 192° (SSW) 1,954 5.6 -10.6°
Maximum altitude 19:01:48 79° 280° (W) 628 3.2 -11.3°
Drops below altitude 10° 19:06:12 10° 7° (N) 1,983 5.8 -12.0°
Sets 19:08:27 0° 9° (N) 2,897 6.7 -12.4°
